User: anonymous   Login
Location: Allos
(44.2333°N, 6.6333°E)
Time: 09:21:30
(UTC+00:00)
Language:

NOAA 6 - Orbit

View from above orbital plane
View from above orbital plane
View from above satellite
View from above satellite

Ground track
Ground track

The orbit data is extracted from the following two-line orbital elements,

1 11416U 79057A   21065.94384631  .00000048  00000-0  33447-4 0  9990
2 11416  98.6665  71.0324 0010070 191.8268 168.2681 14.33621008174535
Epoch (UTC): 06 March 2021 22:39:08
Eccentricity: 0.0010070
inclination: 98.6665°
perigee height: 772 km
apogee height: 787 km
right ascension of ascending node: 71.0324°
argument of perigee: 191.8268°
revolutions per day: 14.33621008
mean anomaly at epoch: 168.2681°
orbit number at epoch: 17453

The dashed part of the orbit path shows where the satellite is in the earth's shadow,  

DLR